Wind_Speed
14 15 15 16 16 15 13 13 13 14 14 15 16 16 15 16 15 14 10 9 11 6 4 7 7 5 3 2 2 2 3 5 7 7 6 15 8 15 17 18 22 21 23 24 25
14 14 15 16 17 17 15 13 14 14 15 16 16 16 15 15 16 18 13 10 7 4 3 2 3 5 5 3 3 3 3 4 5 6 8 15 16 19 18 20 23 23 25 25 26
15 15 15 16 16 16 17 16 16 17 18 18 18 16 14 14 12 5 7 10 6 3 1 1 3 4 6 4 6 4 4 7 12 13 14 16 18 22 19 18 23 23 23 24 23
16 16 16 16 17 17 17 18 19 19 19 20 19 14 12 8 4 6 8 7 6 4 2 2 3 4 4 5 6 4 13 15 15 18 17 13 24 23 23 33 31 32 31 29 26
18 18 18 18 18 19 19 19 20 20 21 21 19 14 10 5 11 15 11 10 7 4 1 3 5 5 7 8 10 12 11 19 18 23 21 24 20 18 29 31 31 28 28 28 28
19 20 21 21 21 21 21 21 22 23 23 22 18 13 8 7 12 14 13 11 8 4 3 3 4 5 9 9 6 12 16 20 20 18 13 15 15 16 26 26 27 25 23 23 24
22 23 24 24 25 25 25 24 24 24 25 25 21 11 12 16 12 12 11 10 9 5 6 7 5 4 9 7 10 12 11 14 14 14 3 6 9 11 22 21 20 20 22 24 21
24 25 26 26 26 26 26 26 25 24 24 23 12 6 9 12 13 14 12 9 10 8 7 8 6 7 7 8 7 5 7 4 4 8 6 7 10 8 15 24 27 29 29 26 26
25 26 27 28 28 28 27 26 25 23 23 15 6 3 8 7 8 10 10 7 8 6 6 4 4 6 5 5 6 7 5 7 8 8 3 7 11 10 22 25 22 19 20 21 24
26 27 27 28 28 28 26 23 21 15 13 6 2 5 7 2 6 7 13 12 7 5 6 6 7 4 5 5 4 4 7 10 9 4 7 8 18 15 22 21 18 13 16 13 13
27 27 27 26 25 25 23 13 8 5 6 9 12 16 24 11 8 5 12 9 10 8 5 10 5 8 10 9 10 8 9 11 12 11 2 7 14 17 14 15 7 12 10 13 9
28 28 26 25 23 17 12 5 5 8 12 23 19 16 16 8 5 8 9 9 8 9 13 5 9 12 8 4 7 8 11 14 11 2 4 11 19 18 11 1 5 8 9 9 10
29 28 26 24 16 16 12 10 8 7 6 10 3 2 1 5 4 6 11 7 8 10 11 9 11 3 5 7 10 10 10 13 10 8 9 8 10 5 6 4 5 15 10 9 9
30 29 26 22 9 13 7 12 9 6 4 4 3 1 1 1 3 4 6 8 5 5 4 8 8 3 7 9 8 12 4 5 6 5 3 7 5 8 8 8 5 17 15 14 14
30 28 24 21 13 10 14 10 8 3 5 4 3 2 3 4 1 2 6 5 7 9 2 7 7 6 8 8 7 4 2 6 7 6 6 4 3 6 6 7 10 8 17 15 19
29 25 21 18 11 17 12 8 4 1 6 4 3 6 11 3 4 2 3 6 9 5 7 14 16 5 5 7 5 8 7 12 9 3 3 9 6 6 4 7 7 10 13 23 25
28 20 18 19 18 14 9 5 2 3 5 5 7 8 13 4 3 4 4 6 4 4 4 10 7 3 3 5 6 4 6 3 1 2 5 5 1 9 2 8 10 10 17 22 23
27 16 14 23 16 13 7 2 3 5 5 9 9 17 7 5 3 2 4 6 8 8 5 4 6 6 6 3 3 7 5 3 4 1 3 6 4 4 9 13 21 19 21 25 24
22 12 12 19 13 9 4 2 4 6 7 13 16 9 5 4 3 7 4 6 6 11 4 5 4 2 5 3 1 3 4 2 3 5 1 4 4 2 9 9 9 18 24 24 25
16 4 8 21 11 5 2 2 4 8 11 9 5 8 9 13 10 10 7 7 7 12 13 5 7 8 1 2 8 6 5 1 2 3 4 3 4 5 7 7 11 11 16 21 23
10 5 7 14 8 3 3 4 4 10 13 6 7 8 8 11 11 7 4 5 9 11 12 7 4 8 11 5 8 3 3 5 4 3 3 2 5 5 9 11 11 9 17 21 24
10 4 15 10 3 5 3 4 9 11 14 6 7 8 6 9 7 6 6 5 12 14 7 6 4 5 12 18 17 9 5 7 3 7 4 6 8 6 10 18 16 15 19 18 21
9 5 14 5 4 5 4 2 4 9 8 6 6 6 8 6 5 8 7 3 13 10 9 7 4 5 9 4 6 5 10 6 8 4 5 3 4 4 7 15 18 17 19 20 22
8 3 8 13 10 5 5 4 5 4 2 7 6 4 11 7 7 8 11 3 21 13 17 5 4 7 8 14 16 14 16 15 12 6 6 12 14 14 18 15 15 22 24 23 21
10 4 5 4 7 7 3 5 7 8 7 8 3 9 9 5 16 6 14 15 11 21 3 3 5 7 11 16 18 20 20 18 16 14 11 17 18 15 11 10 13 19 21 17 21
6 7 8 7 4 6 1 7 7 9 6 6 7 11 10 10 12 16 15 10 8 6 5 8 5 13 13 15 18 20 17 18 19 15 18 18 18 7 14 19 20 21 24 19 23
13 9 6 7 6 4 4 6 8 9 8 3 13 14 12 12 17 21 26 28 23 17 15 14 7 6 6 9 13 7 6 7 9 7 6 5 6 10 11 15 23 25 21 22 25
Wind_Direction
17 14 12 10 5 356 350 346 344 340 334 330 321 315 308 300 297 291 282 243 269 312 342 21 19 328 331 281 322 292 268 259 297 330 330 333 319 297 292 285 274 268 267 270 268
8 6 5 5 4 2 356 349 344 341 338 334 327 322 318 311 304 284 253 238 263 283 10 15 330 331 272 241 224 241 266 264 7 331 309 306 302 298 298 287 277 277 269 266 264
357 356 355 353 352 352 352 346 341 341 338 335 328 323 319 319 325 266 239 226 251 272 354 336 340 322 275 206 234 241 242 322 315 308 310 297 287 288 287 277 272 277 277 271 266
349 346 343 341 339 338 338 337 336 332 331 331 326 318 314 314 310 264 215 232 252 265 273 337 316 264 289 249 214 265 254 271 290 299 302 285 289 282 275 269 280 280 279 278 271
342 338 335 332 330 328 327 326 325 325 326 327 322 312 307 275 260 265 253 250 248 254 192 264 284 302 265 326 301 268 270 271 286 296 284 280 271 271 274 274 274 274 270 267 265
337 333 330 327 325 323 321 320 320 320 320 319 318 304 281 243 246 257 254 234 234 237 232 251 289 290 285 262 276 293 305 295 289 270 263 270 280 278 274 278 269 270 276 264 263
338 334 330 327 325 322 320 319 318 318 317 317 316 299 267 256 256 263 239 233 231 216 241 255 248 260 319 270 288 300 298 284 256 244 258 340 283 223 264 281 263 264 267 269 259
335 332 329 326 323 320 319 317 316 315 312 312 309 293 260 256 258 256 232 224 227 228 225 228 250 265 245 288 301 230 239 292 134 175 177 107 276 291 314 316 293 282 275 266 258
337 334 330 326 323 319 317 313 312 310 307 309 300 248 271 286 264 262 213 215 234 225 237 235 243 234 260 236 274 201 263 268 303 173 187 188 278 278 288 295 296 300 301 279 264
339 337 335 330 327 323 322 316 309 302 303 333 255 264 239 289 245 225 203 208 218 225 262 224 225 241 212 217 244 289 277 295 293 295 225 256 277 296 301 293 290 314 326 295 277
340 339 337 333 331 327 329 346 343 351 294 236 267 267 290 268 258 215 198 208 212 218 237 179 236 224 238 236 262 308 301 284 284 281 285 268 277 285 292 280 333 328 336 351 272
341 340 339 337 335 340 357 29 3 312 305 290 278 278 263 257 256 203 190 199 198 229 223 226 249 244 282 330 293 284 282 277 280 223 269 294 289 285 264 34 309 315 51 23 13
344 342 341 341 347 358 1 2 341 337 268 302 294 7 21 219 250 220 193 222 264 251 253 220 249 251 271 277 276 261 259 270 280 341 291 270 283 238 147 192 265 57 71 59 39
346 347 346 353 352 7 333 339 337 347 285 197 138 190 335 224 203 211 228 251 245 270 294 260 275 302 286 261 259 274 313 331 316 327 264 29 287 306 165 188 101 61 57 42 30
347 346 352 359 357 3 336 337 344 24 348 28 67 5 294 252 325 168 202 227 254 280 252 260 303 236 256 251 262 265 63 285 280 274 307 274 162 260 162 121 98 81 58 32 24
346 344 354 3 19 338 332 338 359 285 255 45 66 5 350 201 193 124 199 228 273 286 243 255 265 219 226 319 292 309 302 267 229 212 268 213 174 282 170 133 112 95 52 28 12
345 346 357 6 351 347 342 18 315 204 33 14 339 344 315 298 294 170 256 214 247 300 310 319 262 112 73 272 213 235 266 300 356 188 229 89 75 244 89 89 100 92 52 34 9
346 343 358 354 342 346 4 252 249 7 11 2 336 305 258 27 350 288 240 261 60 357 303 272 301 163 157 256 334 258 273 220 282 213 280 174 237 287 101 96 101 70 54 31 16
340 343 13 354 350 349 358 309 4 11 352 329 319 301 314 131 355 323 345 29 49 27 348 326 299 75 205 286 187 351 216 305 292 275 288 236 245 356 126 113 96 63 41 25 18
343 30 344 353 357 2 270 60 48 26 347 327 292 355 340 341 328 351 304 22 356 17 337 302 298 277 167 239 239 233 0 292 249 236 234 240 247 191 122 102 70 51 32 25 17
355 316 348 357 10 320 30 30 15 359 8 335 336 311 335 342 343 306 317 52 16 349 330 336 262 291 312 243 280 214 255 209 258 250 265 315 284 88 131 81 75 53 35 25 17
10 323 347 5 49 43 36 12 359 354 7 341 337 325 321 337 305 298 13 55 36 1 351 355 294 276 272 272 265 278 311 302 258 274 249 241 254 276 156 81 68 42 36 24 21
347 315 350 35 49 12 27 37 66 14 15 355 342 357 349 297 310 327 6 86 35 6 1 344 311 320 307 256 30 25 335 334 303 287 250 265 266 128 104 60 45 31 29 13 15
356 340 1 56 60 5 5 39 351 68 326 339 301 328 349 323 317 303 305 326 343 324 322 249 244 255 263 297 322 301 308 306 304 279 308 262 283 307 333 16 27 18 3 358 7
17 46 1 353 21 338 17 30 356 9 343 323 261 30 354 306 316 262 335 320 317 305 263 269 262 288 302 308 301 290 289 291 278 273 269 285 288 308 348 11 21 2 348 341 8
39 3 342 292 302 324 66 46 15 356 320 323 342 331 326 301 297 310 321 320 278 310 338 329 286 319 297 274 261 271 279 271 270 277 270 276 286 359 11 3 8 347 337 20 6
30 356 328 282 344 358 34 356 331 329 308 332 328 314 306 320 327 300 288 276 266 277 283 282 275 303 272 315 328 288 317 324 293 330 343 9 28 5 5 358 354 331 11 7 354
Height
1533 1531 1529 1527 1524 1522 1519 1517 1515 1513 1511 1509 1507 1505 1503 1501 1500 1498 1496 1498 1497 1495 1494 1492 1492 1492 1492 1491 1492 1492 1494 1487 1476 1473 1472 1470 1472 1472 1472 1470 1470 1470 1468 1468 1467
1533 1531 1529 1527 1525 1522 1519 1517 1515 1512 1510 1508 1505 1503 1501 1498 1496 1493 1494 1494 1495 1494 1493 1493 1493 1492 1492 1492 1491 1491 1488 1478 1472 1473 1474 1473 1473 1471 1471 1467 1463 1464 1463 1463 1463
1533 1531 1529 1527 1524 1521 1519 1516 1514 1511 1509 1506 1504 1501 1499 1497 1494 1490 1490 1493 1493 1493 1492 1492 1492 1493 1492 1490 1489 1486 1485 1474 1474 1475 1475 1473 1470 1471 1467 1461 1459 1459 1457 1457 1457
1533 1530 1528 1525 1523 1520 1517 1515 1512 1509 1507 1504 1501 1499 1497 1497 1497 1489 1490 1491 1491 1491 1491 1492 1492 1492 1489 1486 1485 1486 1479 1477 1473 1474 1473 1470 1468 1465 1464 1453 1455 1454 1453 1452 1452
1532 1529 1526 1523 1520 1518 1515 1512 1509 1507 1504 1502 1499 1497 1496 1495 1490 1486 1488 1489 1489 1490 1490 1492 1491 1490 1489 1484 1483 1481 1477 1474 1471 1470 1469 1466 1463 1463 1451 1450 1449 1447 1446 1446 1445
1529 1527 1524 1520 1517 1514 1511 1509 1506 1504 1501 1498 1496 1494 1493 1493 1485 1485 1485 1486 1487 1488 1490 1491 1490 1490 1488 1485 1484 1477 1475 1472 1468 1464 1463 1461 1456 1458 1443 1443 1443 1442 1440 1440 1440
1529 1525 1522 1518 1515 1511 1508 1505 1503 1500 1497 1495 1492 1491 1489 1487 1482 1481 1482 1484 1485 1486 1488 1488 1488 1489 1486 1482 1479 1477 1476 1469 1457 1457 1458 1458 1452 1447 1438 1439 1437 1435 1434 1434 1434
1526 1523 1519 1515 1511 1508 1504 1501 1499 1496 1492 1490 1489 1489 1485 1481 1481 1480 1481 1482 1482 1484 1484 1485 1486 1486 1485 1481 1477 1475 1472 1471 1453 1453 1455 1458 1453 1439 1437 1437 1433 1430 1428 1426 1425
1524 1520 1515 1511 1507 1503 1501 1497 1494 1491 1488 1486 1486 1486 1482 1479 1479 1480 1483 1484 1483 1483 1482 1483 1484 1482 1480 1481 1478 1467 1471 1461 1454 1448 1450 1453 1449 1434 1435 1431 1427 1423 1421 1418 1417
1521 1517 1513 1508 1503 1499 1495 1492 1488 1486 1483 1484 1484 1488 1480 1477 1474 1475 1476 1480 1484 1484 1483 1483 1481 1479 1477 1477 1483 1472 1465 1459 1458 1447 1445 1447 1440 1431 1429 1426 1423 1420 1419 1415 1414
1519 1515 1510 1505 1500 1495 1492 1489 1490 1488 1485 1481 1477 1475 1477 1474 1474 1473 1477 1479 1480 1480 1479 1477 1479 1476 1466 1461 1458 1458 1460 1460 1451 1443 1445 1444 1437 1429 1424 1421 1420 1420 1417 1415 1412
1517 1512 1507 1502 1498 1494 1491 1492 1493 1494 1485 1473 1473 1473 1474 1473 1473 1474 1477 1479 1477 1476 1472 1475 1475 1462 1457 1457 1460 1460 1461 1457 1447 1439 1442 1438 1431 1422 1419 1418 1419 1417 1416 1416 1413
1516 1511 1506 1501 1498 1497 1495 1495 1493 1493 1491 1475 1473 1473 1472 1473 1472 1472 1475 1475 1472 1472 1469 1470 1459 1457 1457 1459 1458 1456 1456 1451 1448 1442 1439 1436 1430 1416 1414 1416 1416 1417 1418 1417 1415
1515 1510 1505 1501 1499 1496 1494 1493 1492 1492 1489 1470 1471 1471 1472 1471 1471 1471 1472 1475 1469 1467 1462 1460 1453 1456 1456 1455 1455 1456 1447 1447 1447 1451 1457 1438 1461 1423 1414 1414 1416 1419 1421 1420 1417
1515 1510 1505 1500 1499 1497 1497 1494 1493 1492 1503 1472 1474 1475 1473 1473 1471 1470 1472 1473 1469 1465 1466 1461 1454 1455 1456 1452 1447 1448 1448 1449 1449 1452 1454 1435 1457 1424 1410 1416 1418 1421 1422 1420 1419
1515 1510 1506 1503 1500 1499 1495 1493 1493 1495 1497 1477 1474 1473 1472 1470 1469 1470 1470 1472 1468 1465 1459 1455 1449 1452 1450 1448 1448 1445 1448 1444 1443 1448 1463 1433 1441 1433 1415 1413 1417 1419 1421 1421 1419
1514 1509 1506 1503 1501 1499 1496 1496 1498 1497 1471 1482 1480 1476 1473 1466 1464 1466 1466 1466 1467 1467 1459 1452 1444 1445 1449 1450 1445 1450 1453 1460 1463 1457 1452 1425 1439 1431 1409 1410 1414 1420 1423 1423 1421
1513 1508 1506 1505 1502 1499 1496 1496 1501 1481 1488 1486 1486 1478 1473 1468 1463 1463 1462 1463 1465 1467 1464 1462 1462 1447 1449 1448 1449 1448 1446 1461 1455 1447 1448 1428 1438 1422 1410 1411 1416 1420 1423 1424 1423
1512 1508 1506 1504 1501 1499 1500 1500 1503 1507 1506 1499 1486 1474 1467 1470 1471 1468 1461 1469 1473 1474 1477 1466 1452 1443 1447 1445 1447 1442 1447 1438 1445 1437 1449 1437 1414 1409 1411 1416 1417 1421 1423 1424 1424
1511 1509 1508 1504 1502 1501 1500 1501 1505 1510 1510 1503 1496 1482 1483 1480 1481 1477 1469 1481 1482 1481 1480 1471 1470 1448 1443 1446 1443 1443 1441 1446 1446 1450 1440 1429 1422 1431 1421 1420 1419 1423 1424 1425 1423
1511 1508 1507 1504 1502 1501 1505 1508 1509 1512 1513 1509 1504 1497 1492 1491 1489 1484 1471 1489 1487 1485 1479 1475 1471 1457 1449 1445 1442 1445 1444 1440 1438 1439 1441 1438 1438 1409 1418 1420 1426 1428 1426 1426 1424
1515 1512 1508 1504 1506 1506 1515 1518 1519 1518 1517 1515 1511 1509 1504 1500 1495 1488 1482 1490 1492 1490 1485 1482 1478 1473 1454 1442 1439 1438 1439 1440 1448 1442 1434 1431 1431 1406 1413 1425 1428 1429 1428 1428 1425
1518 1515 1512 1506 1514 1515 1517 1518 1519 1520 1517 1516 1514 1517 1512 1508 1505 1492 1491 1493 1492 1493 1493 1489 1481 1480 1454 1436 1439 1441 1440 1438 1438 1435 1439 1444 1430 1406 1410 1423 1428 1429 1430 1428 1425
1522 1520 1517 1515 1520 1520 1521 1516 1516 1516 1517 1518 1515 1512 1514 1510 1504 1498 1495 1492 1493 1492 1491 1490 1484 1478 1475 1460 1458 1458 1453 1449 1450 1453 1444 1431 1426 1419 1417 1424 1427 1427 1428 1427 1426
1526 1529 1530 1525 1523 1522 1521 1521 1521 1523 1521 1518 1514 1514 1518 1515 1511 1500 1499 1495 1493 1490 1488 1487 1485 1481 1477 1472 1467 1460 1454 1450 1452 1449 1449 1434 1434 1430 1431 1434 1433 1432 1431 1430 1429
1533 1534 1531 1529 1526 1523 1522 1524 1524 1526 1524 1519 1522 1521 1518 1515 1514 1508 1505 1504 1498 1490 1489 1489 1488 1484 1479 1467 1460 1457 1451 1445 1442 1442 1437 1436 1437 1435 1436 1435 1434 1432 1430 1430 1430
1537 1538 1537 1529 1527 1527 1531 1529 1528 1526 1522 1522 1522 1522 1517 1512 1510 1509 1505 1500 1496 1495 1495 1495 1491 1486 1477 1463 1460 1457 1441 1438 1436 1434 1436 1440 1446 1442 1440 1438 1437 1434 1433 1430 1429